| time (UTC) | temp F | wind direction | speed MPH | gust MPH | rain 1hr in | rain 24hr in | rain mn in | humidity % | barometer mb |
| 20260508024518 | 85 | 292 | 0.0 | 0.0 | 0.00 | 0.38 | 0.01 | 91 | 1002.2 |
| 20260508024018 | 84 | 280 | 0.0 | 0.0 | 0.00 | 0.38 | 0.01 | 92 | 1002.1 |
| 20260508023518 | 84 | 270 | 0.0 | 0.0 | 0.00 | 0.38 | 0.01 | 93 | 1002.1 |
| 20260508023018 | 83 | 270 | 0.0 | 0.0 | 0.00 | 0.38 | 0.01 | 94 | 1002.2 |
| 20260508022518 | 82 | 270 | 0.0 | 0.0 | 0.00 | 0.38 | 0.01 | 95 | 1002.2 |
| 20260508022018 | 81 | 283 | 0.0 | 0.0 | 0.00 | 0.38 | 0.01 | 97 | 1002.2 |
| 20260508021518 | 81 | 284 | 0.0 | 1.0 | 0.00 | 0.38 | 0.01 | 98 | 1002.3 |
| 20260508021018 | 80 | 292 | 0.0 | 0.0 | 0.00 | 0.38 | 0.01 | 99 | 1002.3 |
| 20260508020018 | 79 | 292 | 0.0 | 0.0 | 0.00 | 0.38 | 0.01 | 99 | 1002.2 |
| 20260508015518 | 79 | 292 | 0.0 | 0.0 | 0.00 | 0.38 | 0.01 | 99 | 1002.0 |
| 20260508015018 | 79 | 304 | 0.0 | 0.0 | 0.00 | 0.38 | 0.01 | 99 | 1002.0 |
| 20260508014518 | 79 | 338 | 0.0 | 0.0 | 0.00 | 0.38 | 0.01 | 99 | 1002.0 |
| 20260508014018 | 79 | 338 | 0.0 | 0.0 | 0.00 | 0.38 | 0.01 | 99 | 1001.7 |
| 20260508013518 | 79 | 338 | 0.0 | 0.0 | 0.01 | 0.38 | 0.01 | 99 | 1001.7 |
| 20260508013018 | 78 | 338 | 0.0 | 0.0 | 0.01 | 0.38 | 0.01 | 99 | 1001.6 |
| 20260508012518 | 78 | 338 | 0.0 | 0.0 | 0.01 | 0.38 | 0.01 | 99 | 1001.6 |
| 20260508011517 | 78 | 338 | 0.0 | 0.0 | 0.01 | 0.38 | 0.01 | 99 | 1001.7 |
| 20260508011018 | 77 | 338 | 0.0 | 0.0 | 0.01 | 0.38 | 0.01 | 99 | 1001.7 |
| 20260508010017 | 77 | 338 | 0.0 | 0.0 | 0.01 | 0.38 | 0.01 | 99 | 1001.6 |
| 20260508005518 | 77 | 338 | 0.0 | 0.0 | 0.01 | 0.38 | 0.01 | 99 | 1001.4 |
| 20260508005018 | 77 | 338 | 0.0 | 0.0 | 0.01 | 0.38 | 0.01 | 99 | 1001.4 |
| 20260508004519 | 77 | 338 | 0.0 | 0.0 | 0.01 | 0.38 | 0.01 | 99 | 1001.4 |
| 20260508003518 | 77 | 338 | 0.0 | 0.0 | 0.00 | 0.37 | 0.00 | 99 | 1001.4 |
| 20260508003018 | 77 | 338 | 0.0 | 0.0 | 0.00 | 0.37 | 0.00 | 99 | 1001.3 |
| 20260508002518 | 77 | 338 | 0.0 | 0.0 | 0.00 | 0.37 | 0.00 | 99 | 1001.3 |
| 20260508002018 | 77 | 338 | 0.0 | 0.0 | 0.00 | 0.37 | 0.00 | 99 | 1001.1 |
| 20260508001518 | 77 | 338 | 0.0 | 0.0 | 0.00 | 0.37 | 0.00 | 99 | 1001.1 |
| 20260508000517 | 77 | 338 | 0.0 | 0.0 | 0.00 | 0.37 | 0.00 | 99 | 1001.1 |
| 20260508000018 | 77 | 338 | 0.0 | 0.0 | 0.00 | 0.37 | 0.00 | 99 | 1001.1 |
| 20260507235517 | 77 | 338 | 0.0 | 0.0 | 0.00 | 0.37 | 0.00 | 99 | 1001.0 |
| 20260507235018 | 77 | 338 | 0.0 | 0.0 | 0.00 | 0.37 | 0.00 | 99 | 1001.0 |
| 20260507234018 | 77 | 338 | 0.0 | 0.0 | 0.00 | 0.37 | 0.00 | 99 | 1000.9 |
| 20260507233518 | 77 | 338 | 0.0 | 0.0 | 0.00 | 0.37 | 0.00 | 99 | 1000.9 |
| 20260507233018 | 77 | 338 | 0.0 | 0.0 | 0.00 | 0.37 | 0.00 | 99 | 1000.8 |
| 20260507232518 | 77 | 338 | 0.0 | 0.0 | 0.00 | 0.37 | 0.00 | 99 | 1000.8 |
| 20260507232017 | 77 | 338 | 0.0 | 0.0 | 0.00 | 0.37 | 0.00 | 99 | 1000.8 |
| 20260507231518 | 77 | 315 | 0.0 | 0.0 | 0.00 | 0.37 | 0.00 | 99 | 1000.8 |
| 20260507231017 | 77 | 315 | 0.0 | 0.0 | 0.00 | 0.37 | 0.00 | 99 | 1000.8 |
| 20260507230518 | 77 | 338 | 0.0 | 0.0 | 0.00 | 0.37 | 0.00 | 99 | 1000.9 |
| 20260507230018 | 77 | 317 | 0.0 | 0.0 | 0.00 | 0.37 | 0.00 | 99 | 1000.9 |
| 20260507225518 | 77 | 336 | 0.0 | 0.0 | 0.00 | 0.37 | 0.00 | 99 | 1000.9 |
| 20260507224018 | 77 | 338 | 0.0 | 0.0 | 0.00 | 0.37 | 0.00 | 99 | 1000.9 |
| 20260507223018 | 77 | 315 | 0.0 | 0.0 | 0.00 | 0.37 | 0.00 | 99 | 1000.8 |
| 20260507222517 | 77 | 292 | 0.0 | 0.0 | 0.00 | 0.37 | 0.00 | 99 | 1000.8 |
| 20260507222017 | 77 | 295 | 0.0 | 0.0 | 0.00 | 0.37 | 0.00 | 99 | 1000.8 |
| 20260507221518 | 77 | 304 | 0.0 | 0.0 | 0.00 | 0.37 | 0.00 | 99 | 1000.9 |
| 20260507220518 | 77 | 292 | 0.0 | 0.0 | 0.00 | 0.37 | 0.00 | 99 | 1000.7 |
| 20260507220017 | 77 | 315 | 0.0 | 0.0 | 0.00 | 0.37 | 0.00 | 99 | 1000.7 |
| 20260507215519 | 77 | 302 | 0.0 | 0.0 | 0.00 | 0.37 | 0.00 | 99 | 1000.6 |
| 20260507214517 | 77 | 292 | 0.0 | 0.0 | 0.00 | 0.37 | 0.00 | 99 | 1000.6 |
| 20260507214018 | 77 | 315 | 0.0 | 0.0 | 0.00 | 0.37 | 0.00 | 99 | 1000.6 |
| 20260507213018 | 77 | 275 | 0.0 | 0.0 | 0.00 | 0.37 | 0.00 | 99 | 1000.8 |
| 20260507212517 | 77 | 292 | 0.0 | 0.0 | 0.00 | 0.37 | 0.00 | 99 | 1000.8 |
| 20260507212017 | 77 | 270 | 0.0 | 0.0 | 0.00 | 0.37 | 0.00 | 99 | 1000.8 |
| 20260507211518 | 77 | 270 | 0.0 | 0.0 | 0.00 | 0.37 | 0.00 | 99 | 1000.9 |
| 20260507211017 | 77 | 292 | 0.0 | 0.0 | 0.00 | 0.37 | 0.00 | 99 | 1000.9 |
| 20260507210518 | 77 | 270 | 0.0 | 0.0 | 0.00 | 0.37 | 0.00 | 99 | 1001.1 |
| 20260507210017 | 77 | 284 | 0.0 | 0.0 | 0.00 | 0.37 | 0.00 | 99 | 1001.1 |
| 20260507205519 | 77 | 303 | 0.0 | 0.0 | 0.00 | 0.37 | 0.00 | 99 | 1001.0 |
| 20260507205017 | 77 | 271 | 0.0 | 0.0 | 0.00 | 0.37 | 0.00 | 99 | 1001.0 |
| 20260507204517 | 77 | 283 | 0.0 | 0.0 | 0.00 | 0.37 | 0.00 | 99 | 1001.0 |
| 20260507203018 | 77 | 279 | 0.0 | 0.0 | 0.00 | 0.37 | 0.00 | 99 | 1001.1 |
| 20260507202018 | 77 | 292 | 0.0 | 2.0 | 0.00 | 0.39 | 0.00 | 99 | 1001.1 |
| 20260507201017 | 78 | 292 | 0.0 | 0.0 | 0.00 | 0.39 | 0.00 | 99 | 1001.1 |
| 20260507200518 | 78 | 292 | 0.0 | 0.0 | 0.00 | 0.39 | 0.00 | 99 | 1001.1 |
| 20260507195518 | 78 | 292 | 0.0 | 1.0 | 0.00 | 0.39 | 0.00 | 99 | 1001.2 |
| 20260507194517 | 78 | 292 | 0.0 | 0.0 | 0.00 | 0.39 | 0.00 | 99 | 1001.2 |
| 20260507194017 | 78 | 292 | 0.0 | 0.0 | 0.00 | 0.39 | 0.00 | 99 | 1001.7 |
| 20260507193517 | 78 | 292 | 0.0 | 1.0 | 0.00 | 0.39 | 0.00 | 99 | 1001.7 |
| 20260507193018 | 78 | 292 | 0.0 | 1.0 | 0.00 | 0.39 | 0.00 | 99 | 1002.0 |
| 20260507192517 | 78 | 298 | 0.0 | 1.0 | 0.00 | 0.39 | 0.00 | 99 | 1002.0 |
| 20260507192018 | 78 | 292 | 0.0 | 0.0 | 0.00 | 0.39 | 0.00 | 99 | 1002.0 |
| 20260507191517 | 78 | 292 | 0.0 | 1.0 | 0.00 | 0.39 | 0.00 | 99 | 1002.1 |
| 20260507191018 | 78 | 292 | 0.0 | 0.0 | 0.00 | 0.39 | 0.00 | 99 | 1002.1 |
| 20260507185517 | 78 | 292 | 0.0 | 0.0 | 0.00 | 0.39 | 0.00 | 99 | 1002.8 |
| 20260507184517 | 78 | 292 | 0.0 | 0.0 | 0.00 | 0.39 | 0.00 | 99 | 1002.8 |
| 20260507183517 | 78 | 292 | 0.0 | 0.0 | 0.00 | 0.39 | 0.00 | 99 | 1002.8 |
| 20260507183017 | 78 | 315 | 0.0 | 0.0 | 0.00 | 0.39 | 0.00 | 99 | 1002.9 |
| 20260507182517 | 78 | 338 | 0.0 | 1.0 | 0.00 | 0.39 | 0.37 | 99 | 1002.9 |
| 20260507182018 | 78 | 338 | 0.0 | 0.0 | 0.00 | 0.39 | 0.37 | 99 | 1003.0 |
| 20260507181517 | 78 | 323 | 0.0 | 0.0 | 0.00 | 0.39 | 0.37 | 99 | 1003.1 |
| 20260507181017 | 78 | 338 | 0.0 | 1.0 | 0.00 | 0.39 | 0.37 | 99 | 1003.1 |
| 20260507180518 | 78 | 292 | 0.0 | 0.0 | 0.00 | 0.39 | 0.37 | 99 | 1003.2 |
| 20260507175517 | 78 | 292 | 0.0 | 0.0 | 0.00 | 0.39 | 0.37 | 99 | 1003.1 |
| 20260507174517 | 78 | 315 | 0.0 | 0.0 | 0.00 | 0.39 | 0.37 | 99 | 1003.1 |
| 20260507174017 | 78 | 315 | 0.0 | 0.0 | 0.00 | 0.39 | 0.37 | 99 | 1003.2 |
| 20260507172517 | 78 | 338 | 0.0 | 1.0 | 0.00 | 0.39 | 0.37 | 99 | 1003.0 |
| 20260507172017 | 78 | 338 | 0.0 | 0.0 | 0.00 | 0.39 | 0.37 | 99 | 1003.0 |
| 20260507170517 | 78 | 292 | 0.0 | 0.0 | 0.00 | 0.39 | 0.37 | 99 | 1003.0 |
| 20260507170017 | 78 | 331 | 0.0 | 0.0 | 0.00 | 0.39 | 0.37 | 99 | 1003.0 |
| 20260507165517 | 78 | 319 | 0.0 | 0.0 | 0.00 | 0.39 | 0.37 | 99 | 1003.0 |
| 20260507165017 | 78 | 315 | 0.0 | 0.0 | 0.00 | 0.39 | 0.37 | 99 | 1003.0 |
| 20260507164517 | 78 | 315 | 0.0 | 0.0 | 0.00 | 0.39 | 0.37 | 99 | 1003.0 |
| 20260507164020 | 78 | 292 | 0.0 | 1.0 | 0.00 | 0.39 | 0.37 | 99 | 1003.2 |
| 20260507163517 | 83 | 202 | 0.0 | 0.0 | 0.00 | 0.39 | 0.37 | 98 | 999.8 |
| 20260507102016 | 83 | 202 | 0.0 | 0.0 | 0.00 | 0.39 | 0.37 | 97 | 999.8 |
| 20260507101016 | 83 | 202 | 0.0 | 0.0 | 0.04 | 0.39 | 0.37 | 99 | 1000.0 |
| 20260507100017 | 83 | 202 | 0.0 | 0.0 | 0.23 | 0.39 | 0.37 | 97 | 1000.2 |
| 20260507094516 | 84 | 202 | 0.0 | 0.0 | 0.36 | 0.39 | 0.37 | 97 | 1000.3 |
| 20260507094016 | 84 | 202 | 0.0 | 0.0 | 0.36 | 0.39 | 0.37 | 96 | 1000.2 |
| 20260507093016 | 84 | 194 | 0.0 | 0.0 | 0.36 | 0.39 | 0.37 | 96 | 1000.4 |
| 20260507092517 | 84 | 202 | 0.0 | 0.0 | 0.36 | 0.39 | 0.37 | 95 | 1000.4 |
| 20260507092016 | 84 | 202 | 1.0 | 3.0 | 0.36 | 0.39 | 0.37 | 95 | 1000.4 |
| 20260507091516 | 84 | 200 | 2.0 | 5.0 | 0.36 | 0.39 | 0.37 | 94 | 1000.3 |
| 20260507091016 | 85 | 202 | 3.0 | 5.0 | 0.32 | 0.35 | 0.33 | 93 | 1000.3 |
| 20260507090016 | 87 | 202 | 2.0 | 3.0 | 0.13 | 0.16 | 0.14 | 89 | 1000.2 |
| 20260507085515 | 90 | 180 | 3.0 | 6.0 | 0.03 | 0.06 | 0.04 | 82 | 1000.1 |
| 20260507085015 | 92 | 202 | 3.0 | 7.0 | 0.00 | 0.03 | 0.01 | 73 | 1000.1 |
| 20260507084516 | 92 | 202 | 2.0 | 6.0 | 0.00 | 0.03 | 0.01 | 74 | 1000.1 |
| 20260507084016 | 91 | 207 | 3.0 | 10.0 | 0.00 | 0.03 | 0.01 | 75 | 1000.2 |
| 20260507083516 | 91 | 199 | 4.0 | 8.0 | 0.00 | 0.03 | 0.01 | 75 | 1000.2 |
| 20260507083015 | 91 | 202 | 6.0 | 7.0 | 0.00 | 0.04 | 0.01 | 74 | 1000.2 |
| 20260507082516 | 92 | 202 | 2.0 | 7.0 | 0.00 | 0.07 | 0.01 | 75 | 1000.2 |
| 20260507081516 | 94 | 184 | 4.0 | 6.0 | 0.00 | 0.11 | 0.01 | 71 | 1000.3 |
| 20260507081015 | 93 | 202 | 3.0 | 8.0 | 0.00 | 0.11 | 0.01 | 73 | 1000.3 |
| 20260507080516 | 93 | 202 | 2.0 | 7.0 | 0.00 | 0.11 | 0.01 | 71 | 1000.4 |
| 20260507080016 | 94 | 201 | 3.0 | 7.0 | 0.00 | 0.11 | 0.01 | 71 | 1000.4 |
| 20260507075516 | 95 | 180 | 1.0 | 6.0 | 0.00 | 0.11 | 0.01 | 68 | 1000.6 |
| 20260507075016 | 96 | 208 | 3.0 | 6.0 | 0.00 | 0.11 | 0.01 | 67 | 1000.6 |
| 20260507074516 | 97 | 193 | 3.0 | 5.0 | 0.00 | 0.11 | 0.01 | 64 | 1000.6 |
| 20260507074015 | 99 | 292 | 2.0 | 6.0 | 0.00 | 0.11 | 0.01 | 63 | 1000.7 |
| 20260507073516 | 101 | 270 | 2.0 | 5.0 | 0.00 | 0.11 | 0.01 | 60 | 1000.7 |
| 20260507073015 | 101 | 211 | 3.0 | 6.0 | 0.00 | 0.11 | 0.01 | 58 | 1001.1 |
| 20260507072516 | 104 | 307 | 2.0 | 3.0 | 0.00 | 0.11 | 0.01 | 51 | 1001.1 |
| 20260507072016 | 101 | 248 | 3.0 | 5.0 | 0.00 | 0.11 | 0.01 | 54 | 1001.1 |
| 20260507071515 | 102 | 5 | 3.0 | 5.0 | 0.00 | 0.11 | 0.01 | 56 | 1001.3 |
| 20260507071016 | 100 | 270 | 3.0 | 3.0 | 0.00 | 0.11 | 0.01 | 57 | 1001.3 |
| 20260507070516 | 100 | 292 | 5.0 | 7.0 | 0.00 | 0.11 | 0.01 | 59 | 1001.4 |
| 20260507070016 | 98 | 305 | 3.0 | 6.0 | 0.00 | 0.11 | 0.01 | 60 | 1001.4 |
| 20260507065515 | 97 | 45 | 3.0 | 5.0 | 0.00 | 0.11 | 0.01 | 62 | 1001.5 |
| 20260507065015 | 96 | 328 | 3.0 | 3.0 | 0.00 | 0.11 | 0.01 | 64 | 1001.6 |
| 20260507064516 | 94 | 338 | 2.0 | 5.0 | 0.00 | 0.11 | 0.01 | 68 | 1001.6 |
| 20260507063015 | 93 | 270 | 5.0 | 6.0 | 0.00 | 0.11 | 0.01 | 71 | 1002.0 |
| 20260507062516 | 94 | 294 | 3.0 | 8.0 | 0.00 | 0.11 | 0.01 | 69 | 1002.0 |
| 20260507062015 | 94 | 270 | 3.0 | 8.0 | 0.00 | 0.11 | 0.01 | 71 | 1002.1 |
| 20260507061515 | 92 | 292 | 4.0 | 7.0 | 0.00 | 0.11 | 0.01 | 73 | 1002.2 |
| 20260507061016 | 92 | 270 | 5.0 | 8.0 | 0.00 | 0.11 | 0.01 | 73 | 1002.2 |
| 20260507060515 | 92 | 304 | 2.0 | 5.0 | 0.00 | 0.11 | 0.01 | 75 | 1002.3 |
| 20260507060015 | 90 | 324 | 3.0 | 5.0 | 0.00 | 0.11 | 0.01 | 77 | 1002.3 |
| 20260507055516 | 90 | 301 | 3.0 | 6.0 | 0.00 | 0.11 | 0.01 | 78 | 1002.5 |
| 20260507055016 | 89 | 343 | 4.0 | 6.0 | 0.00 | 0.11 | 0.01 | 80 | 1002.5 |
| 20260507054515 | 88 | 313 | 4.0 | 6.0 | 0.00 | 0.11 | 0.01 | 81 | 1002.5 |
| 20260507054016 | 88 | 292 | 5.0 | 7.0 | 0.00 | 0.11 | 0.01 | 81 | 1002.6 |
| 20260507053516 | 88 | 298 | 7.0 | 10.0 | 0.00 | 0.11 | 0.01 | 82 | 1002.6 |
| 20260507053015 | 88 | 315 | 4.0 | 6.0 | 0.00 | 0.11 | 0.01 | 82 | 1002.7 |
| 20260507052515 | 88 | 328 | 3.0 | 7.0 | 0.00 | 0.11 | 0.01 | 83 | 1002.7 |
| 20260507051516 | 87 | 302 | 3.0 | 7.0 | 0.00 | 0.11 | 0.01 | 84 | 1002.8 |
| 20260507051016 | 87 | 279 | 5.0 | 9.0 | 0.00 | 0.11 | 0.01 | 84 | 1002.8 |
| 20260507050516 | 87 | 292 | 4.0 | 7.0 | 0.00 | 0.11 | 0.01 | 83 | 1003.0 |
| 20260507045516 | 87 | 3 | 3.0 | 6.0 | 0.00 | 0.11 | 0.01 | 83 | 1003.2 |
| 20260507045016 | 87 | 348 | 4.0 | 6.0 | 0.01 | 0.11 | 0.01 | 83 | 1003.2 |
| 20260507043516 | 87 | 324 | 3.0 | 5.0 | 0.01 | 0.11 | 0.01 | 84 | 1003.2 |
| 20260507043016 | 86 | 292 | 4.0 | 6.0 | 0.01 | 0.11 | 0.01 | 85 | 1003.3 |
| 20260507042016 | 86 | 300 | 2.0 | 6.0 | 0.01 | 0.11 | 0.01 | 85 | 1003.3 |
| 20260507041515 | 85 | 292 | 0.0 | 0.0 | 0.01 | 0.11 | 0.01 | 86 | 1003.4 |
| 20260507035016 | 83 | 315 | 0.0 | 0.0 | 0.00 | 0.10 | 0.00 | 91 | 1003.6 |
| 20260507034515 | 83 | 315 | 0.0 | 0.0 | 0.00 | 0.10 | 0.00 | 91 | 1003.6 |
| 20260507034015 | 83 | 328 | 0.0 | 0.0 | 0.00 | 0.10 | 0.00 | 92 | 1003.5 |
| 20260507033515 | 82 | 338 | 0.0 | 0.0 | 0.00 | 0.10 | 0.00 | 92 | 1003.5 |
| 20260507033015 | 82 | 338 | 0.0 | 0.0 | 0.00 | 0.10 | 0.00 | 93 | 1003.5 |
| 20260507032515 | 82 | 338 | 0.0 | 0.0 | 0.00 | 0.10 | 0.00 | 93 | 1003.5 |
| 20260507032015 | 82 | 338 | 0.0 | 0.0 | 0.00 | 0.10 | 0.00 | 94 | 1003.5 |
| 20260507031515 | 81 | 338 | 0.0 | 0.0 | 0.00 | 0.10 | 0.00 | 94 | 1003.4 |
| 20260507030515 | 81 | 47 | 0.0 | 0.0 | 0.00 | 0.10 | 0.00 | 93 | 1003.4 |
| 20260507030015 | 81 | 68 | 0.0 | 0.0 | 0.00 | 0.10 | 0.00 | 93 | 1003.4 |
| 20260507025516 | 81 | 90 | 0.0 | 3.0 | 0.00 | 0.10 | 0.00 | 93 | 1003.4 |
| 20260507025016 | 81 | 90 | 0.0 | 3.0 | 0.00 | 0.10 | 0.00 | 92 | 1003.4 |